Vertical_Velocity
-0 -1 -1 -2 -2 -2 -3 -3 -2 1 -1 -1 -0 -1 -2 -11 -2 -4 -1 -2 2 -1 -3 -2 0 -0 -1 -2 6 11 5 2 -9 -14 -3 -3 -6 -0 -2 3 7 -1 4 9 -0 -5 -0
0 -1 -1 -0 -2 -3 -3 -4 -0 5 0 1 -3 0 1 -4 -1 -6 -2 -1 -2 3 -2 -2 -0 -1 0 -1 3 -7 -2 -5 5 10 -4 1 -3 10 9 -5 1 3 -1 10 -4 -11 1
1 -0 -1 -1 -1 -2 -3 -2 2 0 1 0 1 -2 -2 -4 -1 -3 -4 -2 -3 -2 2 -1 -0 -2 -2 -2 -1 -0 2 2 0 9 1 2 7 3 4 6 10 6 1 2 3 -2 -13
-1 -0 -0 -0 0 -3 -6 3 -0 1 1 -0 -1 -1 -2 -4 -2 -2 -4 -1 -0 -4 2 4 -1 -2 -9 -12 14 1 -5 5 0 9 6 11 9 9 0 4 6 -0 7 1 5 -1 7
-2 -0 0 -1 2 -2 -1 -2 2 -3 2 -3 4 2 -1 2 -3 0 -3 -2 -1 -3 3 3 5 -1 1 -1 -19 5 -5 11 2 2 10 24 -1 4 6 0 6 1 -7 -1 -6 -7 4
-1 0 -1 -1 3 -1 -2 -3 -0 1 4 4 2 -0 2 2 -1 -2 -0 -5 0 -2 2 -0 2 1 6 3 5 3 6 -1 5 12 23 18 3 2 5 -5 -36 -12 6 9 -1 -9 2
-1 -1 0 -1 0 1 0 -5 2 -1 -4 1 -2 4 3 -1 2 -2 -1 -2 -2 0 2 0 -0 -0 5 1 2 -6 -0 -2 3 10 -2 33 -3 -35 7 4 6 -1 -1 -0 3 7 4
2 -2 0 1 -1 1 1 -1 1 0 2 0 -0 4 3 -2 1 -3 -1 -3 -1 1 -1 5 1 1 1 -3 1 1 -5 15 -6 4 40 13 -10 2 8 2 6 -1 -2 5 2 -3 6
2 -0 -1 2 1 1 -1 -1 -1 -1 0 -1 -1 -2 0 2 1 -1 0 -1 -2 1 1 6 -0 -3 -2 2 0 6 -12 -0 4 -9 26 -6 -6 2 5 3 8 2 -4 -2 -2 2 9
0 0 -1 2 0 1 1 3 0 1 -1 3 -1 4 -3 -3 2 -1 -2 -1 -2 1 1 1 -1 -2 1 3 -10 11 2 -14 -2 15 5 -2 2 -7 6 -0 -1 2 -1 7 3 3 -3
-1 -2 -1 -0 -2 0 0 1 -3 -0 -1 4 2 2 -0 1 2 3 -0 1 -0 1 -5 0 -4 -4 -2 -0 -4 -12 12 17 9 -3 -10 -3 0 -6 2 -2 -3 -2 1 -0 2 4 4
-1 -3 -0 -2 -3 -0 1 1 0 0 0 -1 3 1 3 -0 -2 -1 1 2 -3 -2 -6 5 -10 -1 -2 -9 8 -1 -23 5 6 -1 4 -11 9 11 -1 2 1 0 2 0 -0 3 1
1 -3 -1 -3 -3 -1 -0 1 2 -0 -2 3 -2 5 1 -2 2 1 -6 -2 -3 -2 -1 3 -8 2 -5 3 3 0 8 -9 -4 2 17 1 9 3 1 2 3 1 2 -1 -1 2 -6
-0 -3 -1 -1 -3 -2 -0 1 1 -1 2 4 0 2 0 2 0 2 1 -2 -3 -1 -1 9 -2 1 -7 -3 -2 -0 0 -2 -2 -2 -5 1 10 2 2 3 -5 -3 3 -7 -5 -2 -3
-1 -2 -1 -1 -3 -3 -0 1 -0 -2 1 -2 -4 1 -0 1 -3 -4 -2 -2 -1 -2 -2 5 7 3 6 -3 5 2 -2 -3 -3 6 1 -5 -1 -5 0 -1 2 -4 1 5 -3 -1 -0
-1 -3 -0 -1 -3 -3 -1 3 -2 -1 -2 0 -1 -2 -2 -0 5 1 1 -2 1 1 -2 -1 3 0 6 9 -3 -2 -5 -2 -0 0 -1 -3 -6 0 -1 0 4 1 1 -0 -1 -3 -1
-0 -1 -1 -1 -3 -2 -1 -1 -1 -4 -1 -1 1 -5 -1 -2 3 0 1 -2 3 0 -2 1 -2 5 -3 -4 -1 -2 2 -2 4 -3 -3 -0 -3 -2 4 -2 -8 -1 1 0 -2 0 -3
0 -1 -2 -2 -2 -1 -3 -3 -2 -1 -3 -1 -2 -2 1 3 -3 1 0 4 2 -1 -4 -2 1 5 5 -3 -1 3 3 -1 1 -0 -3 -2 -1 -1 -6 -6 3 -2 -6 1 -0 -3 1
0 -1 -3 -2 0 -2 -3 -3 -3 -3 -0 -5 -1 0 3 1 -1 -1 4 2 -1 2 5 -4 0 2 3 6 -2 1 3 3 1 -3 -1 -0 4 -1 1 1 -3 -0 -3 2 3 3 -5
1 -0 -2 -2 1 -3 -3 -4 -3 -1 -4 -2 -1 0 4 -3 2 0 1 0 4 -2 -4 3 -3 2 3 3 5 1 0 -5 -6 -6 -8 1 -1 -1 -10 -2 -1 -7 -6 -0 6 5 -5
-0 -0 -2 0 1 -3 -1 -4 -2 -3 -1 -1 -3 2 0 -3 2 -2 -5 1 2 1 -1 -4 0 -3 3 3 2 2 2 3 3 3 3 3 2 0 1 2 2 3 1 -0 -6 -4 -4
0 -1 -3 1 -2 -3 -2 -2 -1 -3 -3 -12 1 2 -0 4 1 -1 -0 -2 2 -0 -2 2 0 1 -1 0 1 1 3 2 2 1 2 1 -0 1 1 2 0 -3 0 1 1 3 -1
-1 -1 -2 0 -3 -3 -3 -3 -1 -3 -4 -3 2 2 1 2 -2 -0 -1 2 -1 1 -3 -6 -4 1 -1 -1 -1 0 2 2 1 1 2 3 1 -1 -2 -2 1 -6 -4 2 6 -0 11
-1 -2 0 -0 -2 -2 -2 -2 -6 -5 -2 -5 -3 -2 -1 -1 -2 1 -0 2 -1 4 2 -1 0 -0 2 2 -0 -0 1 2 0 0 0 -1 0 1 -1 -2 -5 3 0 0 -2 -0 3
-1 -3 1 1 -3 -3 -1 -2 -1 -5 -5 -3 -1 1 -2 -1 3 0 -1 1 1 2 -1 -0 2 -2 0 0 -1 -0 -1 1 1 1 0 1 1 -2 0 -2 -11 -7 -1 2 3 -11 4
-1 -1 2 -1 -4 -3 -1 -3 -1 -4 -5 -5 -2 0 -3 1 -4 -3 -3 -3 -7 -3 -3 0 -1 0 -1 1 2 0 -2 1 -1 -1 1 3 3 1 -0 0 -1 -1 -0 0 -1 -6 -0
-1 0 1 -1 -4 -3 -4 -0 -2 -4 -5 -4 -4 -4 -5 -1 1 -3 -0 -1 3 3 -2 -1 -1 -1 -4 -1 1 -1 -0 1 -1 -2 -2 -0 -2 -4 0 -2 -9 -0 2 0 -1 -1 1
-1 -0 -1 -1 -2 -3 -3 -2 -2 -3 -3 -6 -4 -2 -3 -3 1 5 2 -4 -5 -5 3 -1 -3 0 4 0 -2 -4 0 2 1 -1 -2 -1 -2 -5 3 1 -11 -0 0 -2 1 1 -3
-2 1 1 -4 -2 -4 -4 -1 -5 -4 -5 -4 -2 -2 -5 -3 -2 -1 -4 5 -0 6 2 10 -3 -5 -2 1 1 1 -1 1 2 -1 0 -4 -3 1 -7 -3 2 0 1 0 0 -1 -0
Height
3120 3115 3109 3104 3098 3093 3088 3083 3078 3074 3069 3065 3060 3054 3048 3041 3033 3028 3024 3020 3017 3015 3013 3013 3012 3012 3012 3013 3017 3018 3020 3026 3034 3042 3053 3061 3066 3072 3079 3085 3090 3094 3098 3105 3111 3118 3123
3118 3113 3107 3102 3096 3092 3085 3080 3076 3072 3067 3063 3057 3051 3047 3041 3033 3027 3023 3020 3018 3016 3014 3013 3012 3011 3010 3010 3013 3014 3018 3023 3029 3038 3050 3057 3063 3072 3078 3082 3089 3092 3098 3104 3108 3115 3119
3117 3111 3105 3100 3094 3088 3084 3079 3074 3069 3065 3060 3055 3049 3045 3040 3033 3027 3023 3020 3018 3016 3014 3013 3012 3010 3009 3009 3008 3011 3017 3022 3029 3036 3046 3055 3064 3071 3075 3080 3088 3092 3098 3102 3106 3111 3113
3115 3110 3104 3098 3093 3087 3083 3078 3072 3067 3063 3058 3052 3047 3043 3039 3032 3028 3024 3021 3019 3018 3015 3014 3012 3011 3007 3004 3007 3009 3013 3020 3028 3037 3047 3052 3063 3071 3075 3080 3086 3092 3096 3099 3104 3108 3112
3114 3109 3103 3096 3090 3086 3081 3076 3070 3066 3061 3056 3051 3046 3041 3037 3033 3028 3023 3020 3019 3018 3015 3013 3014 3012 3011 3007 3006 3008 3014 3019 3026 3036 3045 3053 3059 3067 3074 3078 3084 3089 3092 3097 3100 3104 3107
3113 3107 3102 3096 3089 3084 3079 3074 3068 3064 3059 3054 3050 3046 3041 3037 3033 3028 3025 3020 3018 3016 3015 3014 3014 3015 3013 3011 3011 3010 3014 3019 3026 3035 3045 3050 3057 3065 3070 3074 3072 3075 3083 3089 3094 3097 3102
3111 3105 3100 3094 3087 3082 3077 3071 3066 3062 3057 3053 3048 3044 3040 3037 3033 3029 3026 3021 3021 3018 3015 3015 3015 3014 3012 3013 3013 3015 3018 3023 3028 3038 3043 3045 3053 3053 3059 3070 3075 3079 3085 3090 3094 3097 3099
3109 3104 3098 3093 3085 3079 3074 3069 3063 3059 3055 3051 3046 3042 3039 3035 3032 3029 3027 3024 3020 3020 3017 3014 3013 3012 3012 3013 3015 3017 3021 3027 3031 3032 3031 3045 3048 3059 3066 3071 3077 3080 3085 3090 3095 3099 3103
3107 3103 3097 3091 3083 3077 3071 3066 3062 3056 3052 3048 3044 3040 3037 3034 3031 3029 3027 3026 3022 3020 3018 3017 3016 3015 3015 3017 3016 3019 3023 3025 3032 3037 3034 3040 3049 3059 3067 3072 3077 3080 3085 3090 3094 3098 3100
3105 3101 3096 3090 3082 3075 3068 3065 3059 3053 3050 3045 3042 3038 3036 3033 3032 3028 3026 3025 3023 3020 3020 3021 3017 3017 3016 3016 3018 3016 3024 3028 3030 3030 3036 3045 3053 3060 3067 3071 3077 3079 3085 3090 3094 3097 3097
3104 3099 3094 3088 3081 3074 3067 3064 3058 3051 3046 3042 3039 3036 3033 3030 3029 3028 3026 3022 3023 3021 3023 3023 3019 3018 3017 3018 3022 3020 3018 3027 3030 3033 3039 3046 3051 3058 3066 3071 3077 3082 3086 3089 3092 3094 3096
3102 3098 3092 3086 3080 3072 3066 3061 3055 3049 3044 3040 3037 3034 3032 3030 3028 3027 3025 3023 3023 3024 3021 3022 3022 3021 3021 3020 3020 3025 3026 3023 3029 3035 3042 3046 3052 3062 3066 3071 3077 3081 3086 3090 3092 3093 3094
3100 3096 3090 3085 3078 3071 3065 3057 3053 3046 3041 3036 3034 3033 3031 3029 3026 3025 3024 3024 3025 3023 3024 3024 3024 3022 3024 3027 3028 3027 3029 3032 3033 3038 3039 3049 3056 3059 3066 3072 3077 3081 3085 3090 3095 3094 3090
3098 3094 3088 3083 3077 3069 3063 3055 3050 3045 3039 3035 3033 3032 3030 3028 3026 3023 3024 3026 3024 3025 3023 3022 3024 3025 3025 3028 3031 3032 3034 3035 3037 3039 3042 3048 3059 3060 3064 3069 3072 3078 3083 3082 3089 3091 3088
3095 3091 3086 3080 3074 3067 3060 3054 3047 3042 3037 3034 3031 3030 3028 3027 3025 3023 3024 3023 3025 3027 3028 3025 3025 3027 3028 3028 3030 3033 3035 3038 3038 3040 3043 3047 3053 3059 3063 3069 3074 3076 3079 3083 3084 3087 3087
3092 3088 3083 3077 3071 3064 3057 3052 3045 3041 3035 3031 3029 3028 3027 3026 3024 3023 3022 3023 3025 3026 3028 3030 3027 3024 3025 3028 3031 3033 3036 3039 3041 3043 3044 3048 3054 3058 3062 3067 3070 3072 3077 3081 3081 3087 3085
3089 3085 3079 3074 3068 3063 3055 3049 3044 3040 3035 3031 3028 3026 3026 3025 3024 3023 3023 3024 3026 3030 3031 3032 3032 3030 3029 3030 3030 3032 3035 3039 3041 3044 3046 3049 3052 3060 3063 3063 3066 3071 3070 3075 3077 3077 3075
3086 3083 3077 3071 3065 3060 3054 3049 3044 3039 3034 3030 3027 3026 3025 3024 3026 3023 3022 3022 3025 3027 3031 3033 3033 3034 3034 3032 3032 3031 3033 3035 3039 3044 3048 3051 3053 3056 3059 3060 3064 3066 3068 3070 3073 3073 3070
3082 3080 3075 3068 3063 3058 3053 3048 3043 3038 3034 3030 3027 3025 3024 3023 3024 3025 3025 3025 3026 3029 3029 3031 3034 3035 3036 3035 3036 3035 3035 3035 3036 3041 3047 3049 3051 3053 3058 3061 3060 3060 3061 3064 3067 3067 3062
3079 3076 3071 3066 3061 3056 3051 3047 3042 3038 3033 3029 3027 3025 3024 3024 3024 3023 3024 3026 3026 3027 3029 3031 3032 3034 3035 3035 3035 3035 3036 3038 3039 3041 3044 3047 3049 3050 3051 3051 3052 3053 3054 3057 3060 3057 3055
3075 3072 3068 3063 3059 3053 3049 3046 3041 3037 3032 3029 3026 3024 3022 3022 3022 3024 3026 3026 3026 3027 3027 3029 3031 3033 3035 3035 3035 3035 3036 3038 3040 3042 3044 3046 3047 3048 3049 3049 3048 3048 3048 3050 3050 3049 3050
3071 3069 3065 3061 3056 3051 3048 3046 3041 3035 3031 3026 3024 3023 3021 3021 3023 3024 3024 3026 3026 3025 3028 3028 3030 3031 3034 3036 3036 3036 3036 3037 3038 3040 3042 3043 3043 3043 3044 3044 3044 3043 3044 3043 3042 3043 3042
3067 3066 3062 3059 3053 3049 3047 3045 3040 3034 3029 3025 3021 3020 3020 3021 3021 3022 3023 3023 3025 3025 3026 3027 3029 3030 3032 3034 3036 3036 3036 3036 3036 3038 3039 3041 3041 3042 3042 3041 3041 3039 3035 3036 3035 3035 3036
3063 3062 3059 3056 3051 3047 3045 3042 3038 3034 3029 3022 3019 3019 3018 3019 3019 3019 3022 3022 3024 3025 3026 3027 3028 3029 3031 3032 3034 3036 3036 3036 3036 3037 3038 3039 3040 3042 3041 3041 3042 3031 3030 3030 3029 3029 3030
3059 3058 3055 3052 3048 3046 3043 3039 3035 3032 3026 3020 3018 3018 3016 3016 3016 3018 3019 3020 3023 3023 3025 3026 3027 3029 3030 3031 3032 3034 3035 3035 3035 3035 3036 3037 3038 3039 3040 3039 3033 3029 3028 3028 3027 3026 3026
3055 3054 3052 3049 3046 3044 3040 3037 3033 3029 3024 3020 3017 3015 3015 3015 3014 3014 3015 3016 3019 3021 3024 3025 3026 3028 3030 3031 3031 3032 3033 3033 3033 3034 3035 3036 3037 3039 3039 3039 3035 3028 3027 3026 3025 3023 3022
3051 3050 3048 3046 3044 3041 3038 3035 3032 3028 3023 3019 3016 3014 3012 3011 3010 3010 3012 3014 3014 3016 3018 3022 3023 3026 3029 3030 3031 3032 3032 3032 3032 3032 3033 3034 3035 3036 3037 3037 3029 3026 3026 3026 3026 3027 3021
3046 3046 3044 3043 3040 3038 3036 3033 3031 3027 3022 3019 3016 3013 3011 3009 3008 3007 3008 3009 3009 3012 3015 3018 3023 3024 3026 3029 3030 3031 3031 3031 3030 3030 3031 3032 3033 3033 3034 3035 3029 3024 3024 3025 3024 3021 3019
3044 3042 3041 3041 3038 3037 3034 3032 3029 3026 3023 3020 3017 3013 3010 3009 3009 3008 3008 3009 3010 3012 3014 3015 3018 3020 3023 3026 3027 3028 3028 3028 3028 3028 3029 3031 3030 3030 3030 3026 3025 3024 3024 3023 3022 3020 3018